Tracking 19794 objects as of 21-Jul-2019
HD Live streaming from Space Station
objects crossing your sky now

OPS 4029

Track OPS 4029 now!
OPS 4029 is classified as:


NORAD ID: 12930
Int'l Code: 1981-107A
Perigee: 32,057.4 km
Apogee: 39,527.2 km
Inclination: 7.1 °
Period: 1,436.0 minutes
Semi major axis: 42163 km
RCS: Unknown
Launch date: October 31, 1981
Source: United States (US)
Launch site: AIR FORCE EASTERN TEST RANGE (AFETR)
aabbcc
Your satellite tracking list
Your tracking list is empty




NASA's NSSDC Master Catalog

Two Line Element Set (TLE):
1 12930U 81107A   19191.61958130 0.00000000  00000-0  00000-0 0    09
2 12930   7.0950 351.9692 0885821 345.2693  12.3131  1.00276938    04
Source of the keplerian elements: McCants